Weather History for Naples, FL

Change the Weather History Date:

Sunday, January 20, 2013

  Actual Average Record
Temperature  
Mean Temperature 72 °F 64 °F  
Max Temperature 79 °F 75 °F 88 °F (1990)
Min Temperature 64 °F 54 °F 26 °F (1977)
Degree Days  
Heating Degree Days 0 3  
Month to date heating degree days 6 73  
Since 1 July heating degree days 55 151  
Cooling Degree Days 7 3  
Month to date cooling degree days 157 60  
Year to date cooling degree days 157 60  
Growing Degree Days 21 (Base 50)    
Moisture  
Dew Point 65 °F    
Average Humidity 81    
Maximum Humidity 100    
Minimum Humidity 62    
Precipitation  
Precipitation 0.00 in 0.06 in 2.46 in (1983)
Month to date precipitation 0.11 1.06  
Year to date precipitation 0.11 1.06  
Snow  
Snow 0.00 in - - ()
Month to date snowfall 0.0  
Since 1 July snowfall 0.0  
Snow Depth 0.00 in    
Sea Level Pressure  
Sea Level Pressure 30.09 in    
Wind  
Wind Speed 6 mph (NNE)    
Max Wind Speed 13 mph    
Max Gust Speed 17 mph    
Visibility 10 miles    
Events      
T = Trace of Precipitation, MM = Missing Value Source: NWS Daily Summary

Daily Weather History Graph

Daily Weather History Graph

Search for Another Location

Airport:

Trip Planner

Search our weather history database for the weather conditions in past years. The results will help you decide how hot, cold, wet, or windy it might be!

Date:

Astronomy

Jan. 20, 2013 Rise Set
Actual Time 7:15 AM EST 6:01 PM EST
Civil Twilight 6:50 AM EST 6:25 PM EST
Nautical Twilight 6:22 AM EST 6:54 PM EST
Astronomical Twilight 5:54 AM EST 7:21 PM EST
Moon 1:00 PM EST 1:49 AM EST
Length of Visible Light 11h 35m
Length of Day
10h 45m
Waxing Gibbous, 66% of the Moon is Illuminated
Jan 20
Waxing Gibbous
Jan 26
Full
Feb 3
Last Quarter
Feb 10
New
Feb 17
First Quarter

Hourly Weather History & Observations

Time (EST) Temp. Dew Point Humidity Pressure Visibility Wind Dir Wind Speed Gust Speed Precip Events Conditions
12:18 AM 66.2 °F 64.4 °F 94% 30.12 in 10.0 mi ENE 6.9 mph - N/A   Overcast
12:53 AM 66.0 °F 64.9 °F 96% 30.10 in 10.0 mi ENE 9.2 mph - N/A   Overcast
1:53 AM 66.0 °F 64.9 °F 96% 30.10 in 10.0 mi NE 5.8 mph - N/A   Overcast
2:03 AM 66.2 °F 64.4 °F 94% 30.10 in 10.0 mi ENE 6.9 mph - N/A   Overcast
2:53 AM 64.9 °F 64.0 °F 97% 30.09 in 10.0 mi NE 5.8 mph - N/A   Overcast
3:53 AM 64.9 °F 64.9 °F 100% 30.10 in 10.0 mi NE 5.8 mph - N/A   Overcast
4:53 AM 64.9 °F 64.0 °F 97% 30.09 in 10.0 mi NE 4.6 mph - N/A   Overcast
5:21 AM 64.4 °F 64.4 °F 100% 30.10 in 9.0 mi NNE 6.9 mph - N/A   Overcast
5:53 AM 64.9 °F 64.0 °F 97% 30.10 in 10.0 mi ENE 4.6 mph - N/A   Overcast
6:53 AM 64.0 °F 64.0 °F 100% 30.11 in 10.0 mi NE 4.6 mph - N/A   Overcast
7:53 AM 64.9 °F 64.9 °F 100% 30.14 in 10.0 mi NE 4.6 mph - N/A   Overcast
8:49 AM 66.2 °F 64.4 °F 94% 30.15 in 10.0 mi NE 5.8 mph - N/A   Overcast
8:53 AM 66.0 °F 64.9 °F 96% 30.15 in 10.0 mi NNE 3.5 mph - N/A   Overcast
9:53 AM 69.1 °F 64.9 °F 87% 30.16 in 10.0 mi North 3.5 mph - N/A   Overcast
10:53 AM 72.0 °F 66.0 °F 81% 30.14 in 10.0 mi NE 4.6 mph - N/A   Overcast
11:53 AM 75.0 °F 66.0 °F 73% 30.11 in 10.0 mi Variable 3.5 mph - N/A   Mostly Cloudy
12:53 PM 78.1 °F 64.0 °F 62% 30.07 in 10.0 mi North 8.1 mph - N/A   Mostly Cloudy
1:53 PM 77.0 °F 66.0 °F 69% 30.05 in 10.0 mi West 10.4 mph - N/A   Overcast
2:53 PM 75.0 °F 66.9 °F 76% 30.04 in 10.0 mi West 6.9 mph - N/A   Mostly Cloudy
4:53 PM 72.0 °F 66.9 °F 84% 30.04 in 10.0 mi WNW 8.1 mph - N/A   Mostly Cloudy
5:53 PM 70.0 °F 66.9 °F 90% 30.05 in 10.0 mi NW 3.5 mph - N/A   Scattered Clouds
6:53 PM 70.0 °F 66.9 °F 90% 30.05 in 10.0 mi Calm Calm - N/A   Scattered Clouds
7:53 PM 69.1 °F 68.0 °F 96% 30.06 in 9.0 mi NNW 3.5 mph - N/A   Partly Cloudy
8:53 PM 69.1 °F 66.9 °F 93% 30.06 in 8.0 mi Calm Calm - N/A   Mostly Cloudy
9:53 PM 69.1 °F 66.9 °F 93% 30.07 in 8.0 mi Calm Calm - N/A   Overcast
10:53 PM 69.1 °F 66.0 °F 90% 30.07 in 10.0 mi NE 5.8 mph - N/A   Overcast
11:53 PM 68.0 °F 66.0 °F 93% 30.06 in 10.0 mi NE 6.9 mph - N/A   Overcast